Regional Weather Roundup
Issued by NWS

Home | Current Version | Previous Version | Graphics & Text | Print | Product List | Glossary On
Versions: 1 2 3 4 5 6 7 8 9 10 11 12 13 14 15 16 17 18 19 20 21 22 23 24 25 26 27 28 29 30 31 32 33 34 35 36 37 38 39 40 41 42 43 44 45 46 47 48 49 50
000
ASUS43 KBIS 150510
RWRND

NORTH DAKOTA REGIONAL WEATHER ROUNDUP
NATIONAL WEATHER SERVICE BISMARCK ND
1100 PM CST THU DEC 14 2017

NOTE: "FAIR" INDICATES FEW OR NO CLOUDS BELOW 12,000 FEET WITH NO
SIGNIFICANT WEATHER AND/OR OBSTRUCTIONS TO VISIBILITY.


NDZ001>003-009>011-017-150600-
NORTHWEST NORTH DAKOTA

CITY           SKY/WX    TMP DP  RH WIND       PRES   REMARKS
WILLISTON      CLOUDY    25  21  85 S5        30.01F WCI  19
MINOT          CLOUDY    32  22  66 W9        29.96F
MINOT AFB      CLOUDY    30  22  72 NW8       29.95F
$$

NDZ018>021-031>035-040>046-150600-
SOUTHWEST NORTH DAKOTA

CITY           SKY/WX    TMP DP  RH WIND       PRES   REMARKS
BISMARCK       CLOUDY    35  25  66 W8        30.00F
DICKINSON      CLEAR     21  18  88 W8        29.98F WCI  11
GARRISON         N/A     30  22  72 NW9       29.98F
HETTINGER ARPT CLOUDY    18  15  88 W3        30.03F
$$

NDZ004>008-012>016-024-026-027-054-150600-
NORTHEAST NORTH DAKOTA

CITY           SKY/WX    TMP DP  RH WIND       PRES   REMARKS
GRAND FORKS    CLOUDY    21  18  88 NW7       30.01S WCI  12
GRND FRKS AFB  CLOUDY    20  18  90 N3        30.00F
DEVILS LAKE    CLOUDY    22  20  92 E7        29.97F WCI  13
$$

NDZ022-023-025-028>030-036>039-047>053-150600-
SOUTHEAST NORTH DAKOTA

CITY           SKY/WX    TMP DP  RH WIND       PRES   REMARKS
FARGO          CLOUDY    21  19  92 NE6       29.99F WCI  13
JAMESTOWN      CLOUDY    31  26  82 NW13      29.95F
$$





USA.gov is the U.S. government's official web portal to all federal, state and local government web resources and services.